Miscellaneous Local Product
Issued by NWS Hastings, NE

Home | Current Version | Previous Version | Graphics & Text | Print | Product List | Glossary On
Versions: 1 2 3 4 5 6 7 8 9 10 11 12 13 14 15 16 17 18 19 20 21 22 23 24 25 26 27 28 29 30 31 32 33 34 35 36 37 38 39 40 41 42 43 44 45 46 47 48 49 50
000
AXUS43 KGID 211302
MISGRI

GID CWA HOURLY WEATHER ROUNDUP
NATIONAL WEATHER SERVICE HASTINGS NE
800 AM CDT SUN SEP 21 2014

NOTE: "FAIR" INDICATES FEW OR NO CLOUDS BELOW 12,000 FEET WITH NO
SIGNIFICANT WEATHER AND/OR OBSTRUCTIONS TO VISIBILITY.

...SOUTH CENTRAL NEBRASKA...

CITY           SKY/WX    TMP DP  RH WIND       PRES   REMARKS
GRAND ISLAND   CLEAR     49  43  80 N7        30.25R
HASTINGS       CLEAR     50  43  77 NW6       30.25R
KEARNEY        CLEAR     48  41  76 W6        30.27R
ORD            CLEAR     45  41  86 NW6       30.27R
YORK           CLEAR     48  46  93 NW8       30.24R
AURORA         CLEAR     49  44  81 N7        30.24S
LEXINGTON      CLEAR     45  43  93 NW3       30.29R
HOLDREGE       CLEAR     48  43  84 CALM      30.28R
HEBRON         CLEAR     54  46  74 NW6       30.22R

...NEBRASKA PANHANDLE...

CITY           SKY/WX    TMP DP  RH WIND       PRES   REMARKS
CHADRON        CLEAR     40  37  89 CALM      30.35R
ALLIANCE       MOCLDY    43  39  86 N3        30.36R
SCOTTSBLUFF    CLEAR     47  42  83 N3        30.36R
SIDNEY         CLOUDY    52  46  80 CALM      30.38R

...WESTERN AND NORTH CENTRAL NEBRASKA...

CITY           SKY/WX    TMP DP  RH WIND       PRES   REMARKS
VALENTINE      CLEAR     44  38  79 NW8       30.31R
AINSWORTH      CLEAR     47  38  69 NW8       30.30R
ONEILL         CLEAR     48  43  82 W8        30.26R
BROKEN BOW     CLEAR     46  39  76 N6        30.28R
IMPERIAL       PTCLDY    48  43  82 MISG      30.33R
NORTH PLATTE   CLEAR     42  40  92 CALM      30.31R
MCCOOK         PTCLDY    50  45  83 CALM      30.31R

...EASTERN NEBRASKA...

CITY           SKY/WX    TMP DP  RH WIND       PRES   REMARKS
NORFOLK        CLEAR     50  44  80 W6        30.22R
SO SIOUX CITY  CLEAR     54  45  71 N12       30.18R
TEKAMAH        CLEAR     56  45  66 NW12      30.17R
COLUMBUS       CLEAR     50  43  76 NW6       30.23R
ALBION         CLEAR     44  40  86 NW5       30.25R
OMAHA EPPLEY   CLEAR     54  48  80 NW7       30.18R
OFFUTT AFB     CLEAR     54  53  97 NW8       30.17R
MILLARD        CLEAR     56  47  72 NW8       30.18R
LINCOLN        CLEAR     55  47  74 N8        30.22R
NEBRASKA CITY    N/A     56  45  65 NW9       30.18R
BEATRICE       CLEAR     50  48  92 NW5       30.20R
FALLS CITY     CLEAR     56  53  90 NW7       30.16R

...NORTHERN KANSAS...

CITY           SKY/WX    TMP DP  RH WIND       PRES   REMARKS
GOODLAND       MOCLDY    50  46  86 NW5       30.35R
HILL CITY      PTCLDY    54  46  74 N9        30.27R
NORTON         SUNNY     54  43  66 NW7       30.27R
SMITH CENTER   CLEAR     54  45  71 N9        30.26R
BELOIT         CLEAR     52  50  93 CALM      30.23R
HAYS           CLEAR     54  45  71 N8        30.24R
RUSSELL        CLEAR     55  50  83 N7        30.22R
CONCORDIA      CLEAR     55  52  89 W8        30.22R
SALINA         PTCLDY    60  53  77 NW6       30.21R
TOPEKA         CLEAR     57  56  96 CALM      30.17R



USA.gov is the U.S. government's official web portal to all federal, state and local government web resources and services.